Regional Weather Roundup
Issued by NWS Grand Forks, ND

Home | Current Version | Previous Version | Text Only | Print | Product List | Glossary Off
Versions: 1 2 3 4 5 6 7 8 9 10 11 12 13 14 15 16 17 18 19 20 21 22 23 24 25 26 27 28 29 30 31 32 33 34 35 36 37 38 39 40 41 42 43 44 45 46 47 48 49 50

000
ASUS43 KFGF 241710
RWRFGF
PRAIRIE TO PINES  WEATHER ROUNDUP
NATIONAL WEATHER SERVICE EASTERN NORTH DAKOTA/GRAND FORKS ND
1100 AM CST SAT JAN 24 2015

 **SATELLITE DATA USED TO AUGMENT SKY COVER AT AUTOMATED STATIONS**
 *****  WEATHER ACROSS EASTERN NORTH DAKOTA  *****

CITY           SKY/WX    TMP DP  RH WIND       PRES   REMARKS
GRAND FORKS    CLOUDY    31  28  89 N9        29.64S WCI  23
GRAND FRKS AFB CLOUDY    31  28  91 N9        29.64S WCI  22
GRAND FRKS NWS   N/A     30 N/A N/A N7          N/A  WCI  23
DEVILS LAKE    CLOUDY    28  27  93 NE9       29.62S WCI  20
FARGO          CLOUDY    34  29  82 W5        29.62F
WAHPETON ARPT  CLOUDY    32  28  86 W7        29.64F
$$

 ***** WEATHER ACROSS CENTRAL AND WESTERN NORTH DAKOTA  *****

CITY           SKY/WX    TMP DP  RH WIND       PRES   REMARKS
BISMARCK       RAIN      38  32  79 W5        29.64F
MINOT          LGT RAIN  34  31  88 CALM      29.61R FOG
JAMESTOWN      CLOUDY    34  29  82 NW9       29.62S
MINOT AFB      DRIZZLE   33  32  99 E6        29.61R
GARRISON         N/A     36  36 100 SW3       29.61S
WILLISTON      CLOUDY    39  34  82 W15       29.63R
DICKINSON      PTSUNNY   43  35  73 W20       29.61F
HETTINGER      CLOUDY    43  33  68 W20       29.68F
$$

 *****  OTHER AIRPORT OBSERVATIONS IN OUR AREA  *****

CITY           SKY/WX    TMP DP  RH WIND       PRES   REMARKS
WALHALLA         N/A     25  25 100 N16       29.72R WCI  12
GRAFTON AIRPOR NOT AVBL
VALLEY CITY AR FAIR      32  32 100 NW9       29.63R WCI  24
CANDO          FOG       28  28 100 NE5       29.66R VSB 1/4 WCI  23
CAVALIER APRT  CLOUDY    27  25  93 N14       29.70R WCI  15
GWINNER        SUNNY     34  34 100 SW9       29.64F
SHEYENNE NWR     N/A     33  29  86 W3        29.95S
ROLLA          FOG       27  27 100 E5        29.66R VSB<1/4 WCI  21
 ***** THE ABOVE OBSERVATIONS ARE NON NWS ARE NOT QUALITY
       CONTROLLED AND MAY MIS-REPORT RAIN FOR SNOW...
$$

  *****  WEATHER ACROSS NORTHERN MINNESOTA  *****

CITY           SKY/WX    TMP DP  RH WIND       PRES   REMARKS
FLAG ISLAND    SUNNY     21  16  79 N15       29.69R WCI   8
WARROAD        CLOUDY    27  23  86 NE12      29.68R WCI  16
ROSEAU         CLOUDY    30  27  86 E12       29.67R WCI  21
HALLOCK        CLOUDY    32  28  86 N6        29.67S
THF RVR FALLS  PTSUNNY   30  28  93 NE7       29.64R WCI  23
BAUDETTE       CLOUDY    31  24  75 N9        29.65R WCI  23
WASKISH        CLOUDY    32  30  93 CALM      29.64S
CROOKSTON      PTSUNNY   30  28  93 CALM      29.65R
STEPHEN NDAWN    N/A     30  28  93 VRB9        N/A  WCI  22
GREENBUSH NDAW   N/A     30  28  93 NE10        N/A  WCI  21
$$
  *****  WEATHER ACROSS CENTRAL AND WEST MINNESOTA  *****

CITY           SKY/WX    TMP DP  RH WIND       PRES   REMARKS
FOSSTON        CLOUDY    28  27  93 S3        29.63S FOG
BEMIDJI        CLOUDY    29  28  99 CALM      29.62F FOG
PARK RAPIDS    CLOUDY    29  29 100 CALM      29.62S FOG
ELBOW LAKE     FAIR      32  30  92 NW5       29.65S
WADENA         CLOUDY    30  28  93 CALM      29.63S
DETROIT LAKES  MOSUNNY   32  32 100 W6        29.63S
MOORHEAD       CLOUDY    34  34 100 SW5       29.64F
FERGUS FALLS   PTSUNNY   28  28 100 NW3       29.67F
MORRIS MN      PTSUNNY   36  30  80 W6        29.66S
STAPLES        CLOUDY    28  28 100 CALM      29.63F
$$
  *****  WEATHER ELSEWHERE ACROSS MINNESOTA  *****

CITY           SKY/WX    TMP DP  RH WIND       PRES   REMARKS
DULUTH         CLOUDY    34  29  82 NW9       29.61R
INTRNTL FALLS  CLOUDY    25  16  68 NE12      29.66R WCI  14
ELY            CLOUDY    30  25  80 N5        29.61R
CLOQUET        CLOUDY    34  28  80 W6        29.62R
WHEATON        CLOUDY    34  28  80 W5        29.66F
BRAINERD       CLOUDY    30  30 100 SW6       29.64F FOG     WCI  24
HIBBING        CLOUDY    34  27  75 NW6       29.62R
ALEXANDRIA     SUNNY     35  30  82 VRB6      29.64F
SAINT CLOUD    SUNNY     36  30  79 SW5       29.66F
MINNEAPOLIS    MOSUNNY   35  30  82 S5        29.68F
$$

  *****  WEATHER ACROSS SOUTH DAKOTA  *****

CITY           SKY/WX    TMP DP  RH WIND       PRES   REMARKS
SIOUX FALLS    CLOUDY    38  30  73 W8        29.73F
BROOKINGS      NOT AVBL
WATERTOWN      CLOUDY    34  29  82 W7        29.66F
HURON          CLOUDY    37  31  78 W7        29.71F
SISSETON         N/A     36  31  82 NW12      29.63F
ABERDEEN       CLOUDY    35  31  85 S3        29.66F
MITCHELL       CLOUDY    39  30  70 W10       29.74F
PIERRE         LGT RAIN  39  31  72 SW10      29.73F
MOBRIDGE       CLOUDY    44  35  70 W8        29.65F
RAPID CITY     CLOUDY    49  36  61 NW16G26   29.82F
$$

  *****  SOME WEATHER IN NEARBY STATES *****

CITY           SKY/WX    TMP DP  RH WIND       PRES   REMARKS
GLASGOW MT     CLOUDY    42  35  76 NW21      29.79R
GREAT FALLS MT MOSUNNY   45  36  70 W15       30.02R
CHEYENNE WY    CLOUDY    45  11  25 W24G43    30.02F
SCOTTSBLUFF NE CLOUDY    42  24  49 W22G29    29.98S
OMAHA NE       PTSUNNY   46  31  55 W7        29.85F
DES MOINES IA  MOSUNNY   44  32  62 W9        29.80F
DAVENPORT IA   MOSUNNY   36  31  82 W12       29.77F
CHICAGO IL     PTSUNNY   38  30  73 W8        29.70S
EAU CLAIRE WI  PTSUNNY   35  30  82 W8        29.66F
LA CROSSE WI   CLOUDY    37  31  78 NW7       29.70F
$$

  *****  SOME NATIONAL WEATHER *****

CITY           SKY/WX    TMP DP  RH WIND       PRES   REMARKS
LA GUARDIA NY  DRIZZLE   35  33  92 N12       29.43F FOG
RALEIGH NC     CLOUDY    41  35  79 W8G16     29.59S
ATLANTA GA     MOSUNNY   42  31  64 W14G22    29.90R
NEW ORLEANS LA MOSUNNY   50  34  54 NW15      30.21S
OKLAHOMA CITY  SUNNY     51  31  46 NW8       30.14S
ALBUQUERQUE NM MOSUNNY   33  20  58 SW3       30.34F
SALT LAKE CITY PTSUNNY   32  21  64 S7        30.53R
LOS ANGELES CA SUNNY     60  34  37 E3        30.10R
BOISE ID       CLOUDY    32  28  85 CALM      30.52R
SEATTLE WA     CLOUDY    55  52  89 S7        30.30S
$$

*** WEATHER ACROSS MANITOBA...SASKATCHEWAN AND ONTARIO ***
                ***ONTARIO***

CITY           SKY/WX    TMP DP  RH WIND       PRES   REMARKS
GERALDTON      MOSUNNY    1  -6  71 N13G20    29.67S WCI -16
THUNDER BAY    PTSUNNY   16   7  67 NW9G17    29.71R WCI   4
SIOUX LOOKOUT  FLURRIES   7   0  72 N7        29.74R WCI  -5
TORONTO        CLOUDY    28  25  86 W10       29.53F WCI  19
BIG TROUT LK   SUNNY     -6 -11  77 N6        29.88R WCI -18
PICKLE LAKE    FLURRIES  -6 -15  65 N6        29.79R WCI -18
DRYDEN         FLURRIES   9   5  85 NE6       29.74R WCI  -1
KENORA         CRYSTALS  10   5  79 NE13      29.71R WCI  -5
$$
                *** MANITOBA***

CITY           SKY/WX    TMP DP  RH WIND       PRES   REMARKS
BRANDON        CLOUDY    19  18  93 NE21G28   29.70R WCI   3
DAUPHIN        CLOUDY    14   9  79 E10       29.80R WCI   1
ISLAND LAKE    MOSUNNY   -9 -17  70 W5        29.99R WCI -21
PILOT MOUND    NOT AVBL
THE PAS        LGT SNOW   0  -6  78 E10G17    29.87R WCI -17
THOMPSON       NOT AVBL
WINNIPEG       PTSUNNY   16  10  79 N15G21    29.77R WCI   1
LYNN LAKE      CLOUDY   -11 -15  84 E9        29.90R WCI -29
CHURCHILL      MOSUNNY  -22 -29  69 W10       30.11R WCI -44
GILLAM         PTSUNNY  -20 -26  76 NW6       30.07R WCI -36
$$
                ***SASKATCHEWAN***

CITY           SKY/WX    TMP DP  RH WIND       PRES   REMARKS
ESTEVAN        LGT RAIN  36  34  93 NW10      29.62R
KINDERSLEY     MOSUNNY   39  30  70 W17G23    29.78R
LLOYDMINSTER   MOSUNNY   39  30  70 W26G33    29.71R
PRINCE ALBERT  LGT SNOW  19  18  93 E7        29.66R FOG     WCI  10
REGINA         LGT SNOW  34  34 100 NW14      29.66R WCI  24
YORKTON        FLURRIES  19  19 100 E12       29.68S WCI   7
N. BATTLEFORD  MOSUNNY   39  34  81 W14G20    29.70R
LA RONGE       LGT SNOW  10   7  85 E13       29.68R WCI  -5
SASKATOON      CLOUDY    32  30  93 SW7       29.67R
SWIFT CURRENT  PTSUNNY   37  34  87 W20G29    29.75R
$$
NOTE: THESE ARE AUTOMATED STATIONS WITH LIMITED QUALITY CONTROL
      "FAIR" INDICATES FEW OR NO CLOUDS BELOW 12,000 FEET WITH NO
      SIGNIFICANT WEATHER AND/OR OBSTRUCTIONS TO VISIBILITY.
      SKY/WX - SKY CONDITION AND SIGNIFICANT WEATHER.
      TMP - AIR TEMPERATURE.    DP   - DEWPOINT TEMPERATURE.
      RH  - RELATIVE HUMIDITY.  PRES - PRESSURE.
      HX  - HEAT INDEX.         WCI  - WIND CHILL INDEX.
$


USA.gov is the U.S. government's official web portal to all federal, state and local government web resources and services.